Location: Bryzozowice
(50.3667°N, 18.9667°E)
Time: 10:21:40
(UTC+00:00)

USA 267 - Pass Details

Date: 24 January 2020
Orbit: 1099 x 1108 km, 123.0° (Epoch: 10 February)

Event Time Altitude Azimuth Distance (km) Brightness Sun altitude
Exits shadow 18:30:19 48° 21° (NNE) 1,416 3.6 -29.6°
Maximum altitude 18:31:18 52° 353° (N) 1,355 3.7 -29.7°
Drops below altitude 10° 18:37:34 10° 280° (W) 2,963 6.4 -30.7°
Sets 18:40:07 0° 276° (W) 3,922 7.3 -31.1°
